Time,TemperatureF,DewpointF,PressureIn,WindDirection,WindDirectionDegrees,WindSpeedMPH,WindSpeedGustMPH,Humidity,HourlyPrecipIn,Conditions,Clouds,dailyrainin,SoftwareType,DateUTC
2013-03-29 00:00:00,18.4,16.6,30.19,SSE,158,4.0,7.0,93,0.00,,,0.00,VWS V14.01,2013-03-29 05:00:00,
2013-03-29 00:05:00,18.0,16.0,30.19,SSE,158,1.0,9.0,92,0.00,,,0.00,VWS V14.01,2013-03-29 05:05:00,
2013-03-29 00:10:00,17.9,15.9,30.19,SSE,158,5.0,9.0,92,0.00,,,0.00,VWS V14.01,2013-03-29 05:10:00,
2013-03-29 00:15:00,17.8,15.8,30.19,SSE,157,3.0,9.0,92,0.00,,,0.00,VWS V14.01,2013-03-29 05:15:00,
2013-03-29 00:20:00,17.7,15.7,30.19,SSE,157,2.0,4.0,92,0.00,,,0.00,VWS V14.01,2013-03-29 05:20:00,
2013-03-29 00:25:00,17.7,15.7,30.19,SSE,157,0.0,4.0,92,0.00,,,0.00,VWS V14.01,2013-03-29 05:25:00,
2013-03-29 00:30:00,17.8,16.0,30.19,SSE,157,2.0,4.0,93,0.00,,,0.00,VWS V14.01,2013-03-29 05:30:00,
2013-03-29 00:35:00,17.7,15.9,30.19,SSE,157,2.0,5.0,93,0.00,,,0.00,VWS V14.01,2013-03-29 05:35:00,
2013-03-29 00:40:00,17.4,15.4,30.18,SSE,157,4.0,5.0,92,0.00,,,0.00,VWS V14.01,2013-03-29 05:40:00,
2013-03-29 00:45:00,17.2,15.2,30.18,SSE,157,2.0,5.0,92,0.00,,,0.00,VWS V14.01,2013-03-29 05:45:00,
2013-03-29 00:50:00,17.1,15.1,30.18,SSE,157,2.0,5.0,92,0.00,,,0.00,VWS V14.01,2013-03-29 05:50:00,
2013-03-29 00:55:00,17.0,15.0,30.18,SSE,157,1.0,5.0,92,0.00,,,0.00,VWS V14.01,2013-03-29 05:55:00,
2013-03-29 01:00:00,16.9,14.9,30.18,SSE,157,2.0,5.0,92,0.00,,,0.00,VWS V14.01,2013-03-29 06:00:00,
2013-03-29 01:05:00,16.9,14.9,30.18,SSE,157,0.0,4.0,92,0.00,,,0.00,VWS V14.01,2013-03-29 06:05:00,
2013-03-29 01:10:00,17.1,15.1,30.18,SSE,157,2.0,4.0,92,0.00,,,0.00,VWS V14.01,2013-03-29 06:10:00,
2013-03-29 01:15:00,17.1,15.1,30.18,SSE,157,0.0,4.0,92,0.00,,,0.00,VWS V14.01,2013-03-29 06:15:00,
2013-03-29 01:20:00,17.2,15.2,30.18,SSE,157,1.0,3.0,92,0.00,,,0.00,VWS V14.01,2013-03-29 06:20:00,
2013-03-29 01:25:00,17.2,15.2,30.18,SSE,157,1.0,3.0,92,0.00,,,0.00,VWS V14.01,2013-03-29 06:25:00,
2013-03-29 01:30:00,17.2,15.2,30.18,SSE,157,0.0,3.0,92,0.00,,,0.00,VWS V14.01,2013-03-29 06:30:00,
2013-03-29 01:35:00,17.3,15.6,30.18,SSE,157,3.0,4.0,93,0.00,,,0.00,VWS V14.01,2013-03-29 06:35:00,
2013-03-29 01:40:00,17.3,15.6,30.18,SSE,155,2.0,4.0,93,0.00,,,0.00,VWS V14.01,2013-03-29 06:40:00,
2013-03-29 01:45:00,17.2,15.2,30.17,SSE,155,3.0,4.0,92,0.00,,,0.00,VWS V14.01,2013-03-29 06:45:00,
2013-03-29 01:50:00,17.3,15.6,30.18,SSE,155,1.0,3.0,93,0.00,,,0.00,VWS V14.01,2013-03-29 06:50:00,
2013-03-29 01:55:00,17.3,15.6,30.18,SSE,155,3.0,4.0,93,0.00,,,0.00,VWS V14.01,2013-03-29 06:55:00,
2013-03-29 02:00:00,17.4,15.6,30.17,SSE,155,0.0,4.0,93,0.00,,,0.00,VWS V14.01,2013-03-29 07:00:00,
2013-03-29 02:05:00,17.5,15.8,30.17,SSE,155,1.0,2.0,93,0.00,,,0.00,VWS V14.01,2013-03-29 07:05:00,
2013-03-29 02:10:00,17.5,15.8,30.17,SSE,155,2.0,5.0,93,0.00,,,0.00,VWS V14.01,2013-03-29 07:10:00,
2013-03-29 02:15:00,17.3,15.3,30.17,SSE,155,0.0,5.0,92,0.00,,,0.00,VWS V14.01,2013-03-29 07:15:00,
2013-03-29 02:20:00,17.2,15.2,30.17,SSE,155,2.0,4.0,92,0.00,,,0.00,VWS V14.01,2013-03-29 07:20:00,
2013-03-29 02:25:00,17.2,15.2,30.17,SSE,155,2.0,4.0,92,0.00,,,0.00,VWS V14.01,2013-03-29 07:25:00,
2013-03-29 02:30:00,17.1,15.1,30.17,SSE,155,2.0,5.0,92,0.00,,,0.00,VWS V14.01,2013-03-29 07:30:00,
2013-03-29 02:35:00,16.8,14.8,30.17,SSE,155,2.0,4.0,92,0.00,,,0.00,VWS V14.01,2013-03-29 07:35:00,
2013-03-29 02:40:00,16.6,14.6,30.17,SSE,155,2.0,4.0,92,0.00,,,0.00,VWS V14.01,2013-03-29 07:40:00,
2013-03-29 02:45:00,16.5,14.5,30.17,SE,143,2.0,4.0,92,0.00,,,0.00,VWS V14.01,2013-03-29 07:45:00,
2013-03-29 02:50:00,16.4,14.4,30.16,SE,140,0.0,4.0,92,0.00,,,0.00,VWS V14.01,2013-03-29 07:50:00,
2013-03-29 02:55:00,16.1,14.1,30.16,SE,142,2.0,4.0,92,0.00,,,0.00,VWS V14.01,2013-03-29 07:55:00,
2013-03-29 03:00:00,16.0,14.0,30.16,SE,140,3.0,4.0,92,0.00,,,0.00,VWS V14.01,2013-03-29 08:00:00,
2013-03-29 03:05:00,15.8,13.8,30.16,SE,140,3.0,4.0,92,0.00,,,0.00,VWS V14.01,2013-03-29 08:05:00,
2013-03-29 03:10:00,15.8,13.8,30.15,SE,139,1.0,4.0,92,0.00,,,0.00,VWS V14.01,2013-03-29 08:10:00,
2013-03-29 03:15:00,15.9,13.9,30.15,SE,139,0.0,4.0,92,0.00,,,0.00,VWS V14.01,2013-03-29 08:15:00,
2013-03-29 03:20:00,16.0,14.0,30.16,SE,140,0.0,4.0,92,0.00,,,0.00,VWS V14.01,2013-03-29 08:20:00,
2013-03-29 03:25:00,15.9,13.9,30.16,SSE,161,2.0,5.0,92,0.00,,,0.00,VWS V14.01,2013-03-29 08:25:00,
2013-03-29 03:30:00,15.7,13.7,30.15,SSE,161,1.0,5.0,92,0.00,,,0.00,VWS V14.01,2013-03-29 08:30:00,
2013-03-29 03:35:00,15.4,13.2,30.16,SSE,161,1.0,3.0,91,0.00,,,0.00,VWS V14.01,2013-03-29 08:35:00,
2013-03-29 03:40:00,15.3,13.3,30.16,SSE,161,0.0,3.0,92,0.00,,,0.00,VWS V14.01,2013-03-29 08:40:00,
2013-03-29 03:45:00,15.1,12.9,30.15,SSE,161,2.0,3.0,91,0.00,,,0.00,VWS V14.01,2013-03-29 08:45:00,
2013-03-29 03:50:00,14.9,12.9,30.15,SSE,161,1.0,3.0,92,0.00,,,0.00,VWS V14.01,2013-03-29 08:50:00,
2013-03-29 03:55:00,14.9,12.9,30.15,SSE,161,0.0,3.0,92,0.00,,,0.00,VWS V14.01,2013-03-29 08:55:00,
2013-03-29 04:00:00,14.9,12.9,30.15,SSE,161,0.0,3.0,92,0.00,,,0.00,VWS V14.01,2013-03-29 09:00:00,
2013-03-29 04:05:00,15.0,13.0,30.15,SSE,161,0.0,0.0,92,0.00,,,0.00,VWS V14.01,2013-03-29 09:05:00,
2013-03-29 04:10:00,15.1,13.1,30.15,SSE,161,0.0,0.0,92,0.00,,,0.00,VWS V14.01,2013-03-29 09:10:00,
2013-03-29 04:15:00,15.2,13.2,30.15,SSE,161,0.0,0.0,92,0.00,,,0.00,VWS V14.01,2013-03-29 09:15:00,
2013-03-29 04:20:00,15.3,13.3,30.15,SSE,161,0.0,0.0,92,0.00,,,0.00,VWS V14.01,2013-03-29 09:20:00,
2013-03-29 04:25:00,15.3,13.3,30.15,SSE,161,0.0,2.0,92,0.00,,,0.00,VWS V14.01,2013-03-29 09:25:00,
2013-03-29 04:30:00,15.3,13.3,30.14,SSE,161,0.0,2.0,92,0.00,,,0.00,VWS V14.01,2013-03-29 09:30:00,
2013-03-29 04:35:00,15.3,13.3,30.15,SSE,161,0.0,0.0,92,0.00,,,0.00,VWS V14.01,2013-03-29 09:35:00,
2013-03-29 04:40:00,15.3,13.3,30.14,SSE,161,0.0,0.0,92,0.00,,,0.00,VWS V14.01,2013-03-29 09:40:00,
2013-03-29 04:45:00,15.2,13.2,30.14,SSE,161,0.0,0.0,92,0.00,,,0.00,VWS V14.01,2013-03-29 09:45:00,
2013-03-29 04:50:00,15.1,13.1,30.14,SSE,161,0.0,0.0,92,0.00,,,0.00,VWS V14.01,2013-03-29 09:50:00,
2013-03-29 04:55:00,15.1,13.1,30.14,SSE,161,1.0,2.0,92,0.00,,,0.00,VWS V14.01,2013-03-29 09:55:00,
2013-03-29 05:00:00,15.1,13.1,30.14,SSE,161,0.0,2.0,92,0.00,,,0.00,VWS V14.01,2013-03-29 10:00:00,
2013-03-29 05:05:00,15.0,13.0,30.14,SSE,161,0.0,0.0,92,0.00,,,0.00,VWS V14.01,2013-03-29 10:05:00,
2013-03-29 05:10:00,14.9,12.9,30.13,SSE,161,0.0,0.0,92,0.00,,,0.00,VWS V14.01,2013-03-29 10:10:00,
2013-03-29 05:15:00,14.9,12.9,30.13,SSE,161,0.0,0.0,92,0.00,,,0.00,VWS V14.01,2013-03-29 10:15:00,
2013-03-29 05:20:00,14.8,12.8,30.13,SSE,161,0.0,0.0,92,0.00,,,0.00,VWS V14.01,2013-03-29 10:20:00,
2013-03-29 05:25:00,14.8,12.6,30.13,SSE,161,0.0,2.0,91,0.00,,,0.00,VWS V14.01,2013-03-29 10:25:00,
2013-03-29 05:30:00,14.2,12.0,30.13,SSE,161,1.0,2.0,91,0.00,,,0.00,VWS V14.01,2013-03-29 10:30:00,
2013-03-29 05:35:00,13.7,11.2,30.13,SSE,161,1.0,3.0,90,0.00,,,0.00,VWS V14.01,2013-03-29 10:35:00,
2013-03-29 05:40:00,13.1,10.6,30.13,SSE,161,2.0,4.0,90,0.00,,,0.00,VWS V14.01,2013-03-29 10:40:00,
2013-03-29 05:45:00,12.7,10.2,30.13,SSE,161,0.0,4.0,90,0.00,,,0.00,VWS V14.01,2013-03-29 10:45:00,
2013-03-29 05:50:00,12.5,10.1,30.13,SSE,161,0.0,0.0,90,0.00,,,0.00,VWS V14.01,2013-03-29 10:50:00,
2013-03-29 05:55:00,12.2,9.8,30.13,SSE,161,2.0,3.0,90,0.00,,,0.00,VWS V14.01,2013-03-29 10:55:00,
2013-03-29 06:00:00,12.1,9.7,30.13,SSE,161,0.0,3.0,90,0.00,,,0.00,VWS V14.01,2013-03-29 11:00:00,
2013-03-29 06:05:00,11.8,9.4,30.13,SSE,161,1.0,4.0,90,0.00,,,0.00,VWS V14.01,2013-03-29 11:05:00,
2013-03-29 06:10:00,11.6,9.2,30.13,SSE,161,2.0,4.0,90,0.00,,,0.00,VWS V14.01,2013-03-29 11:10:00,
2013-03-29 06:15:00,11.3,8.9,30.13,SSE,161,4.0,4.0,90,0.00,,,0.00,VWS V14.01,2013-03-29 11:15:00,
2013-03-29 06:20:00,11.2,8.8,30.13,SSE,161,0.0,3.0,90,0.00,,,0.00,VWS V14.01,2013-03-29 11:20:00,
2013-03-29 06:25:00,11.0,8.6,30.13,SSE,161,1.0,3.0,90,0.00,,,0.00,VWS V14.01,2013-03-29 11:25:00,
2013-03-29 06:30:00,10.7,8.3,30.13,SSE,161,1.0,3.0,90,0.00,,,0.00,VWS V14.01,2013-03-29 11:30:00,
2013-03-29 06:35:00,10.4,8.0,30.13,SSE,161,1.0,3.0,90,0.00,,,0.00,VWS V14.01,2013-03-29 11:35:00,
2013-03-29 06:40:00,10.1,7.7,30.13,SSE,161,1.0,3.0,90,0.00,,,0.00,VWS V14.01,2013-03-29 11:40:00,
2013-03-29 06:45:00,9.9,7.5,30.13,SSE,161,2.0,3.0,90,0.00,,,0.00,VWS V14.01,2013-03-29 11:45:00,
2013-03-29 06:50:00,9.6,7.2,30.13,SSE,161,0.0,1.0,90,0.00,,,0.00,VWS V14.01,2013-03-29 11:50:00,
2013-03-29 06:55:00,9.5,7.1,30.13,SSE,161,0.0,1.0,90,0.00,,,0.00,VWS V14.01,2013-03-29 11:55:00,
2013-03-29 07:00:00,9.5,7.1,30.13,SSE,161,0.0,1.0,90,0.00,,,0.00,VWS V14.01,2013-03-29 12:00:00,
2013-03-29 07:05:00,9.6,7.2,30.12,SSE,161,0.0,0.0,90,0.00,,,0.00,VWS V14.01,2013-03-29 12:05:00,
2013-03-29 07:10:00,9.6,7.2,30.12,SSE,161,1.0,3.0,90,0.00,,,0.00,VWS V14.01,2013-03-29 12:10:00,
2013-03-29 07:15:00,9.6,7.2,30.13,SSE,161,0.0,3.0,90,0.00,,,0.00,VWS V14.01,2013-03-29 12:15:00,
2013-03-29 07:20:00,9.5,7.1,30.12,SSE,161,0.0,3.0,90,0.00,,,0.00,VWS V14.01,2013-03-29 12:20:00,
2013-03-29 07:25:00,9.4,7.0,30.12,SSE,161,0.0,3.0,90,0.00,,,0.00,VWS V14.01,2013-03-29 12:25:00,
2013-03-29 07:30:00,9.4,7.0,30.12,SSE,161,1.0,3.0,90,0.00,,,0.00,VWS V14.01,2013-03-29 12:30:00,
2013-03-29 07:35:00,9.5,7.1,30.12,SSE,161,0.0,1.0,90,0.00,,,0.00,VWS V14.01,2013-03-29 12:35:00,
2013-03-29 07:40:00,9.5,7.1,30.12,SSE,161,0.0,1.0,90,0.00,,,0.00,VWS V14.01,2013-03-29 12:40:00,
2013-03-29 07:45:00,9.6,7.2,30.12,SSE,161,2.0,2.0,90,0.00,,,0.00,VWS V14.01,2013-03-29 12:45:00,
2013-03-29 07:50:00,9.6,7.2,30.12,SSE,161,2.0,3.0,90,0.00,,,0.00,VWS V14.01,2013-03-29 12:50:00,
2013-03-29 07:55:00,9.8,7.4,30.12,SSE,161,0.0,3.0,90,0.00,,,0.00,VWS V14.01,2013-03-29 12:55:00,
2013-03-29 08:00:00,10.0,7.6,30.12,SSE,161,0.0,3.0,90,0.00,,,0.00,VWS V14.01,2013-03-29 13:00:00,
2013-03-29 08:05:00,10.3,8.1,30.12,SSE,160,0.0,3.0,91,0.00,,,0.00,VWS V14.01,2013-03-29 13:05:00,
2013-03-29 08:10:00,10.7,8.5,30.12,SSE,160,1.0,3.0,91,0.00,,,0.00,VWS V14.01,2013-03-29 13:10:00,
2013-03-29 08:15:00,10.7,8.3,30.12,SSE,158,0.0,3.0,90,0.00,,,0.00,VWS V14.01,2013-03-29 13:15:00,
2013-03-29 08:20:00,10.8,8.4,30.11,SSE,157,0.0,3.0,90,0.00,,,0.00,VWS V14.01,2013-03-29 13:20:00,
2013-03-29 08:25:00,11.1,8.9,30.11,SSE,157,0.0,3.0,91,0.00,,,0.00,VWS V14.01,2013-03-29 13:25:00,
2013-03-29 08:30:00,11.4,9.2,30.11,SSE,157,0.0,3.0,91,0.00,,,0.00,VWS V14.01,2013-03-29 13:30:00,
2013-03-29 08:35:00,11.7,9.5,30.11,SSE,157,0.0,2.0,91,0.00,,,0.00,VWS V14.01,2013-03-29 13:35:00,
2013-03-29 08:40:00,11.8,9.6,30.11,SSE,157,1.0,2.0,91,0.00,,,0.00,VWS V14.01,2013-03-29 13:40:00,
2013-03-29 08:45:00,11.9,9.7,30.11,SSE,157,1.0,3.0,91,0.00,,,0.00,VWS V14.01,2013-03-29 13:45:00,
2013-03-29 08:50:00,11.9,9.5,30.11,SSE,157,2.0,3.0,90,0.00,,,0.00,VWS V14.01,2013-03-29 13:50:00,
2013-03-29 08:55:00,11.9,9.5,30.11,SSE,157,0.0,3.0,90,0.00,,,0.00,VWS V14.01,2013-03-29 13:55:00,
2013-03-29 09:00:00,12.2,10.0,30.11,SSE,156,2.0,3.0,91,0.00,,,0.00,VWS V14.01,2013-03-29 14:00:00,
2013-03-29 09:05:00,12.6,10.4,30.11,SSE,156,0.0,2.0,91,0.00,,,0.00,VWS V14.01,2013-03-29 14:05:00,
2013-03-29 09:10:00,13.3,11.3,30.10,SSE,155,0.0,3.0,92,0.00,,,0.00,VWS V14.01,2013-03-29 14:10:00,
2013-03-29 09:15:00,14.0,12.0,30.10,SSE,155,0.0,3.0,92,0.00,,,0.00,VWS V14.01,2013-03-29 14:15:00,
2013-03-29 09:20:00,14.8,12.8,30.10,SSE,155,2.0,2.0,92,0.00,,,0.00,VWS V14.01,2013-03-29 14:20:00,
2013-03-29 09:25:00,14.9,12.9,30.10,SSE,153,1.0,3.0,92,0.00,,,0.00,VWS V14.01,2013-03-29 14:25:00,
2013-03-29 09:30:00,15.2,13.2,30.10,SSE,153,0.0,3.0,92,0.00,,,0.00,VWS V14.01,2013-03-29 14:30:00,
2013-03-29 09:35:00,15.3,13.3,30.10,SSE,152,0.0,4.0,92,0.00,,,0.00,VWS V14.01,2013-03-29 14:35:00,
2013-03-29 09:40:00,15.3,13.1,30.09,SSE,153,1.0,4.0,91,0.00,,,0.00,VWS V14.01,2013-03-29 14:40:00,
2013-03-29 09:45:00,15.4,13.4,30.09,SSE,150,1.0,4.0,92,0.00,,,0.00,VWS V14.01,2013-03-29 14:45:00,
2013-03-29 09:50:00,15.7,13.7,30.09,SSE,150,0.0,3.0,92,0.00,,,0.00,VWS V14.01,2013-03-29 14:50:00,
2013-03-29 09:55:00,16.2,14.2,30.10,SSE,150,0.0,3.0,92,0.00,,,0.00,VWS V14.01,2013-03-29 14:55:00,
2013-03-29 10:00:00,16.5,14.5,30.09,SSE,150,1.0,4.0,92,0.00,,,0.00,VWS V14.01,2013-03-29 15:00:00,
2013-03-29 10:05:00,17.0,15.3,30.09,SE,138,1.0,4.0,93,0.00,,,0.00,VWS V14.01,2013-03-29 15:05:00,
2013-03-29 10:10:00,17.5,15.8,30.09,SE,138,0.0,4.0,93,0.00,,,0.00,VWS V14.01,2013-03-29 15:10:00,
2013-03-29 10:15:00,17.8,16.0,30.08,SE,138,1.0,4.0,93,0.00,,,0.00,VWS V14.01,2013-03-29 15:15:00,
2013-03-29 10:20:00,18.0,16.2,30.09,SE,138,0.0,1.0,93,0.00,,,0.00,VWS V14.01,2013-03-29 15:20:00,
2013-03-29 10:25:00,18.5,16.7,30.08,SE,138,0.0,1.0,93,0.00,,,0.00,VWS V14.01,2013-03-29 15:25:00,
2013-03-29 10:30:00,18.8,17.0,30.09,SE,138,0.0,1.0,93,0.00,,,0.00,VWS V14.01,2013-03-29 15:30:00,
2013-03-29 10:34:00,19.3,17.5,30.09,SE,138,0.0,0.0,93,0.00,,,0.00,VWS V14.01,2013-03-29 15:34:00,
2013-03-29 10:39:00,19.5,17.7,30.08,SE,138,1.0,4.0,93,0.00,,,0.00,VWS V14.01,2013-03-29 15:39:00,
2013-03-29 10:44:00,19.3,17.5,30.08,SE,138,0.0,4.0,93,0.00,,,0.00,VWS V14.01,2013-03-29 15:44:00,
2013-03-29 10:45:00,15.4,13.4,30.09,SSE,150,1.0,4.0,92,0.00,,,0.00,VWS V14.01,2013-03-29 15:45:00,
2013-03-29 10:49:00,19.4,17.6,30.08,SE,138,1.0,3.0,93,0.00,,,0.00,VWS V14.01,2013-03-29 15:49:00,
2013-03-29 10:54:00,19.8,18.0,30.07,SE,138,0.0,3.0,93,0.00,,,0.00,VWS V14.01,2013-03-29 15:54:00,
2013-03-29 10:59:00,19.8,18.0,30.07,SE,138,2.0,4.0,93,0.00,,,0.00,VWS V14.01,2013-03-29 15:59:00,
2013-03-29 11:00:00,16.6,14.6,30.09,SE,146,2.0,4.0,92,0.00,,,0.00,VWS V14.01,2013-03-29 16:00:00,
2013-03-29 11:04:00,20.0,18.2,30.07,SE,136,2.0,4.0,93,0.00,,,0.00,VWS V14.01,2013-03-29 16:04:00,
2013-03-29 11:09:00,20.3,18.5,30.07,SE,135,0.0,6.0,93,0.00,,,0.00,VWS V14.01,2013-03-29 16:09:00,
2013-03-29 11:14:00,20.6,18.8,30.07,SSE,152,4.0,6.0,93,0.00,,,0.00,VWS V14.01,2013-03-29 16:14:00,
2013-03-29 11:15:00,17.9,16.1,30.09,SE,138,1.0,4.0,93,0.00,,,0.00,VWS V14.01,2013-03-29 16:15:00,
2013-03-29 11:19:00,20.5,18.7,30.08,SSE,150,4.0,7.0,93,0.00,,,0.00,VWS V14.01,2013-03-29 16:19:00,
2013-03-29 11:24:00,20.8,19.3,30.08,SSE,158,3.0,7.0,94,0.00,,,0.00,VWS V14.01,2013-03-29 16:24:00,
2013-03-29 11:29:00,21.2,19.7,30.07,SSE,157,4.0,7.0,94,0.00,,,0.00,VWS V14.01,2013-03-29 16:29:00,
2013-03-29 11:30:00,18.9,17.1,30.09,SE,138,0.0,1.0,93,0.00,,,0.00,VWS V14.01,2013-03-29 16:30:00,
2013-03-29 11:34:00,21.1,19.3,30.07,SSE,150,3.0,7.0,93,0.00,,,0.00,VWS V14.01,2013-03-29 16:34:00,
2013-03-29 11:39:00,21.5,20.0,30.07,SSE,155,3.0,7.0,94,0.00,,,0.00,VWS V14.01,2013-03-29 16:39:00,
2013-03-29 11:44:00,21.9,20.4,30.07,SSE,147,6.0,7.0,94,0.00,,,0.00,VWS V14.01,2013-03-29 16:44:00,
2013-03-29 11:45:00,19.3,17.5,30.08,SE,138,0.0,4.0,93,0.00,,,0.00,VWS V14.01,2013-03-29 16:45:00,
2013-03-29 11:49:00,22.4,20.9,30.06,SE,132,2.0,6.0,94,0.00,,,0.00,VWS V14.01,2013-03-29 16:49:00,
2013-03-29 11:54:00,23.0,21.5,30.06,SE,136,1.0,6.0,94,0.00,,,0.00,VWS V14.01,2013-03-29 16:54:00,
2013-03-29 11:59:00,23.5,22.0,30.06,SE,136,3.0,6.0,94,0.00,,,0.00,VWS V14.01,2013-03-29 16:59:00,
2013-03-29 12:00:00,19.9,18.1,30.07,SE,138,1.0,4.0,93,0.00,,,0.00,VWS V14.01,2013-03-29 17:00:00,
2013-03-29 12:04:00,23.8,22.2,30.06,SE,136,2.0,4.0,94,0.00,,,0.00,VWS V14.01,2013-03-29 17:04:00,
2013-03-29 12:09:00,24.3,23.0,30.06,SE,134,0.0,4.0,95,0.00,,,0.00,VWS V14.01,2013-03-29 17:09:00,
2013-03-29 12:14:00,25.2,23.9,30.06,SE,133,2.0,4.0,95,0.00,,,0.00,VWS V14.01,2013-03-29 17:14:00,
2013-03-29 12:15:00,20.6,18.8,30.07,SSE,152,4.0,6.0,93,0.00,,,0.00,VWS V14.01,2013-03-29 17:15:00,
2013-03-29 12:19:00,25.2,23.6,30.06,SE,128,0.0,4.0,94,0.00,,,0.00,VWS V14.01,2013-03-29 17:19:00,
2013-03-29 12:24:00,25.5,24.2,30.05,SE,128,1.0,4.0,95,0.00,,,0.00,VWS V14.01,2013-03-29 17:24:00,
2013-03-29 12:29:00,26.0,24.7,30.05,SE,128,2.0,4.0,95,0.00,,,0.00,VWS V14.01,2013-03-29 17:29:00,
2013-03-29 12:30:00,21.2,19.7,30.07,SSE,161,6.0,7.0,94,0.00,,,0.00,VWS V14.01,2013-03-29 17:30:00,
2013-03-29 12:34:00,26.5,25.2,30.05,SE,128,0.0,3.0,95,0.00,,,0.00,VWS V14.01,2013-03-29 17:34:00,
2013-03-29 12:39:00,27.0,25.7,30.05,SE,128,1.0,4.0,95,0.00,,,0.00,VWS V14.01,2013-03-29 17:39:00,
2013-03-29 12:44:00,27.5,26.2,30.04,SE,126,2.0,4.0,95,0.00,,,0.00,VWS V14.01,2013-03-29 17:44:00,
2013-03-29 12:45:00,22.0,20.5,30.07,SE,146,5.0,7.0,94,0.00,,,0.00,VWS V14.01,2013-03-29 17:45:00,
2013-03-29 12:49:00,27.6,26.0,30.04,ESE,120,2.0,4.0,94,0.00,,,0.00,VWS V14.01,2013-03-29 17:49:00,
2013-03-29 12:54:00,27.5,25.7,30.03,ESE,114,2.0,4.0,93,0.00,,,0.00,VWS V14.01,2013-03-29 17:54:00,
2013-03-29 12:59:00,28.2,26.6,30.03,ESE,111,2.0,4.0,94,0.00,,,0.00,VWS V14.01,2013-03-29 17:59:00,
2013-03-29 13:00:00,23.6,22.0,30.06,SE,136,4.0,6.0,94,0.00,,,0.00,VWS V14.01,2013-03-29 18:00:00,
2013-03-29 13:04:00,28.4,26.6,30.03,ESE,111,1.0,5.0,93,0.00,,,0.00,VWS V14.01,2013-03-29 18:04:00,
2013-03-29 13:09:00,29.0,27.2,30.03,ESE,111,1.0,5.0,93,0.00,,,0.00,VWS V14.01,2013-03-29 18:09:00,
2013-03-29 13:14:00,29.4,27.3,30.02,East,92,0.0,6.0,92,0.00,,,0.00,VWS V14.01,2013-03-29 18:14:00,
2013-03-29 13:15:00,25.3,24.0,30.06,SE,128,3.0,5.0,95,0.00,,,0.00,VWS V14.01,2013-03-29 18:15:00,
2013-03-29 13:19:00,30.2,27.8,30.02,East,98,5.0,5.0,91,0.00,,,0.00,VWS V14.01,2013-03-29 18:19:00,
2013-03-29 13:24:00,30.8,28.1,30.02,SE,135,1.0,6.0,90,0.00,,,0.00,VWS V14.01,2013-03-29 18:24:00,
2013-03-29 13:29:00,31.3,28.4,30.02,SE,128,4.0,6.0,89,0.00,,,0.00,VWS V14.01,2013-03-29 18:29:00,
2013-03-29 13:30:00,26.1,24.8,30.05,SE,128,3.0,4.0,95,0.00,,,0.00,VWS V14.01,2013-03-29 18:30:00,
2013-03-29 13:34:00,31.2,27.7,30.02,SSE,164,6.0,7.0,87,0.00,,,0.00,VWS V14.01,2013-03-29 18:34:00,
2013-03-29 13:39:00,31.4,27.3,30.01,SE,144,6.0,7.0,85,0.00,,,0.00,VWS V14.01,2013-03-29 18:39:00,
2013-03-29 13:44:00,31.5,27.4,30.01,ESE,105,2.0,7.0,85,0.00,,,0.00,VWS V14.01,2013-03-29 18:44:00,
2013-03-29 13:45:00,27.5,25.9,30.04,SE,126,1.0,4.0,94,0.00,,,0.00,VWS V14.01,2013-03-29 18:45:00,
2013-03-29 13:49:00,31.9,27.2,30.01,ENE,78,4.0,6.0,83,0.00,,,0.00,VWS V14.01,2013-03-29 18:49:00,
2013-03-29 13:54:00,32.2,27.2,30.01,ENE,76,2.0,6.0,82,0.00,,,0.00,VWS V14.01,2013-03-29 18:54:00,
2013-03-29 13:59:00,32.4,27.1,30.01,East,80,3.0,6.0,81,0.00,,,0.00,VWS V14.01,2013-03-29 18:59:00,
2013-03-29 14:00:00,28.4,26.8,30.03,ESE,111,3.0,4.0,94,0.00,,,0.00,VWS V14.01,2013-03-29 19:00:00,
2013-03-29 14:04:00,32.9,27.6,30.01,East,89,2.0,6.0,81,0.00,,,0.00,VWS V14.01,2013-03-29 19:04:00,
2013-03-29 14:09:00,33.3,27.7,30.01,East,95,0.0,6.0,80,0.00,,,0.00,VWS V14.01,2013-03-29 19:09:00,
2013-03-29 14:14:00,33.6,27.7,30.01,East,96,2.0,6.0,79,0.00,,,0.00,VWS V14.01,2013-03-29 19:14:00,
2013-03-29 14:15:00,29.6,27.5,30.02,East,98,3.0,6.0,92,0.00,,,0.00,VWS V14.01,2013-03-29 19:15:00,
2013-03-29 14:19:00,33.8,27.9,30.01,SE,142,4.0,6.0,79,0.00,,,0.00,VWS V14.01,2013-03-29 19:19:00,
2013-03-29 14:24:00,34.1,28.2,30.01,SE,143,4.0,6.0,79,0.00,,,0.00,VWS V14.01,2013-03-29 19:24:00,
2013-03-29 14:29:00,34.6,28.7,30.01,SE,146,0.0,6.0,79,0.00,,,0.00,VWS V14.01,2013-03-29 19:29:00,
2013-03-29 14:30:00,31.2,28.0,30.02,SSE,148,4.0,7.0,88,0.00,,,0.00,VWS V14.01,2013-03-29 19:30:00,
2013-03-29 14:34:00,35.3,29.0,30.01,SSE,151,1.0,4.0,78,0.00,,,0.00,VWS V14.01,2013-03-29 19:34:00,
2013-03-29 14:39:00,35.8,28.9,30.01,SSE,151,0.0,4.0,76,0.00,,,0.00,VWS V14.01,2013-03-29 19:39:00,
2013-03-29 14:44:00,36.4,29.5,30.01,SSE,151,1.0,4.0,76,0.00,,,0.00,VWS V14.01,2013-03-29 19:44:00,
2013-03-29 14:45:00,31.6,27.5,30.01,East,101,2.0,7.0,85,0.00,,,0.00,VWS V14.01,2013-03-29 19:45:00,
2013-03-29 14:49:00,36.6,29.3,30.01,SSE,151,3.0,3.0,75,0.00,,,0.00,VWS V14.01,2013-03-29 19:49:00,
2013-03-29 14:54:00,36.2,28.6,30.01,South,182,3.0,4.0,74,0.00,,,0.00,VWS V14.01,2013-03-29 19:54:00,
2013-03-29 14:59:00,36.0,28.8,30.02,SSW,195,1.0,5.0,75,0.00,,,0.00,VWS V14.01,2013-03-29 19:59:00,
2013-03-29 15:00:00,32.4,27.1,30.00,ENE,78,2.0,6.0,81,0.00,,,0.00,VWS V14.01,2013-03-29 20:00:00,
2013-03-29 15:04:00,35.6,28.4,30.02,WSW,246,3.0,6.0,75,0.00,,,0.00,VWS V14.01,2013-03-29 20:04:00,
2013-03-29 15:09:00,35.0,28.1,30.02,West,265,5.0,7.0,76,0.00,,,0.00,VWS V14.01,2013-03-29 20:09:00,
2013-03-29 15:14:00,34.6,28.7,30.02,WNW,294,4.0,7.0,79,0.00,,,0.00,VWS V14.01,2013-03-29 20:14:00,
2013-03-29 15:15:00,33.7,27.8,30.01,East,96,2.0,6.0,79,0.00,,,0.00,VWS V14.01,2013-03-29 20:15:00,
2013-03-29 15:19:00,35.0,28.8,30.02,WNW,300,6.0,6.0,78,0.00,,,0.00,VWS V14.01,2013-03-29 20:19:00,
2013-03-29 15:24:00,34.2,27.7,30.03,NNW,328,8.0,12.0,77,0.00,,,0.00,VWS V14.01,2013-03-29 20:24:00,
2013-03-29 15:29:00,32.2,26.0,30.03,NW,307,6.0,12.0,78,0.00,,,0.00,VWS V14.01,2013-03-29 20:29:00,
2013-03-29 15:30:00,34.8,28.9,30.01,SE,146,3.0,6.0,79,0.00,,,0.00,VWS V14.01,2013-03-29 20:30:00,
2013-03-29 15:34:00,31.0,25.5,30.02,NNW,331,3.0,10.0,80,0.00,,,0.00,VWS V14.01,2013-03-29 20:34:00,
2013-03-29 15:39:00,30.6,25.7,30.01,NNW,331,4.0,10.0,82,0.00,,,0.00,VWS V14.01,2013-03-29 20:39:00,
2013-03-29 15:44:00,29.9,25.3,29.99,NE,36,3.0,11.0,83,0.00,,,0.00,VWS V14.01,2013-03-29 20:44:00,
2013-03-29 15:45:00,36.6,29.7,30.01,SSE,151,2.0,4.0,76,0.00,,,0.00,VWS V14.01,2013-03-29 20:45:00,
2013-03-29 15:49:00,30.0,25.4,30.00,NE,36,0.0,4.0,83,0.00,,,0.00,VWS V14.01,2013-03-29 20:49:00,
2013-03-29 15:54:00,29.9,25.6,30.01,NW,309,6.0,9.0,84,0.00,,,0.00,VWS V14.01,2013-03-29 20:54:00,
2013-03-29 15:59:00,29.8,25.8,30.02,NW,304,6.0,9.0,85,0.00,,,0.00,VWS V14.01,2013-03-29 20:59:00,
2013-03-29 16:00:00,35.9,28.7,30.01,SSW,195,2.0,5.0,75,0.00,,,0.00,VWS V14.01,2013-03-29 21:00:00,
2013-03-29 16:04:00,30.2,26.7,30.01,NW,306,0.0,3.0,87,0.00,,,0.00,VWS V14.01,2013-03-29 21:04:00,
2013-03-29 16:09:00,30.0,26.2,30.00,NW,306,0.0,3.0,86,0.00,,,0.00,VWS V14.01,2013-03-29 21:09:00,
2013-03-29 16:14:00,30.2,26.7,30.00,NW,306,0.0,3.0,87,0.00,,,0.00,VWS V14.01,2013-03-29 21:14:00,
2013-03-29 16:15:00,34.7,29.1,30.02,WNW,300,1.0,7.0,80,0.00,,,0.00,VWS V14.01,2013-03-29 21:15:00,
2013-03-29 16:19:00,30.6,27.1,30.00,NW,306,0.0,0.0,87,0.00,,,0.00,VWS V14.01,2013-03-29 21:19:00,
2013-03-29 16:24:00,31.2,27.7,30.00,NW,306,0.0,0.0,87,0.00,,,0.00,VWS V14.01,2013-03-29 21:24:00,
2013-03-29 16:29:00,31.8,28.0,30.00,NW,306,0.0,2.0,86,0.00,,,0.00,VWS V14.01,2013-03-29 21:29:00,
2013-03-29 16:30:00,31.8,26.0,30.02,NW,308,2.0,12.0,79,0.00,,,0.00,VWS V14.01,2013-03-29 21:30:00,
2013-03-29 16:34:00,32.2,28.4,30.00,NW,306,0.0,0.0,86,0.00,,,0.00,VWS V14.01,2013-03-29 21:34:00,
2013-03-29 16:39:00,32.0,27.9,30.00,NW,306,0.0,3.0,85,0.00,,,0.00,VWS V14.01,2013-03-29 21:39:00,
2013-03-29 16:44:00,32.2,28.4,30.00,NW,306,0.0,3.0,86,0.00,,,0.00,VWS V14.01,2013-03-29 21:44:00,
2013-03-29 16:45:00,29.9,25.3,29.99,NE,37,1.0,11.0,83,0.00,,,0.00,VWS V14.01,2013-03-29 21:45:00,
2013-03-29 16:49:00,32.1,28.0,30.00,NW,306,0.0,2.0,85,0.00,,,0.00,VWS V14.01,2013-03-29 21:49:00,
2013-03-29 16:54:00,32.4,28.9,29.99,NW,306,0.0,3.0,87,0.00,,,0.00,VWS V14.01,2013-03-29 21:54:00,
2013-03-29 16:59:00,33.0,29.8,29.99,NW,306,2.0,3.0,88,0.00,,,0.00,VWS V14.01,2013-03-29 21:59:00,
2013-03-29 17:00:00,29.8,25.8,30.02,NW,306,3.0,9.0,85,0.00,,,0.00,VWS V14.01,2013-03-29 22:00:00,
2013-03-29 17:04:00,33.4,29.9,29.99,SSW,209,5.0,6.0,87,0.00,,,0.00,VWS V14.01,2013-03-29 22:04:00,
2013-03-29 17:09:00,33.3,29.8,29.98,South,191,3.0,6.0,87,0.01,,,0.01,VWS V14.01,2013-03-29 22:09:00,
2013-03-29 17:14:00,33.4,30.1,29.98,South,180,4.0,6.0,88,0.01,,,0.01,VWS V14.01,2013-03-29 22:14:00,
2013-03-29 17:15:00,30.3,26.8,30.00,NW,306,0.0,3.0,87,0.00,,,0.00,VWS V14.01,2013-03-29 22:15:00,
2013-03-29 17:19:00,33.4,30.1,29.98,SSE,160,3.0,5.0,88,0.01,,,0.01,VWS V14.01,2013-03-29 22:19:00,
2013-03-29 17:24:00,33.6,30.6,29.98,SSE,159,1.0,5.0,89,0.01,,,0.01,VWS V14.01,2013-03-29 22:24:00,
2013-03-29 17:29:00,33.9,30.9,29.97,SSE,155,2.0,5.0,89,0.01,,,0.01,VWS V14.01,2013-03-29 22:29:00,
2013-03-29 17:30:00,31.8,28.0,30.00,NW,306,0.0,2.0,86,0.00,,,0.00,VWS V14.01,2013-03-29 22:30:00,
2013-03-29 17:34:00,34.2,31.2,29.97,SSE,155,0.0,3.0,89,0.01,,,0.01,VWS V14.01,2013-03-29 22:34:00,
2013-03-29 17:39:00,34.3,31.3,29.97,SSE,155,0.0,3.0,89,0.01,,,0.01,VWS V14.01,2013-03-29 22:39:00,
2013-03-29 17:44:00,34.1,31.1,29.97,SSE,155,2.0,5.0,89,0.01,,,0.01,VWS V14.01,2013-03-29 22:44:00,
2013-03-29 17:45:00,32.3,28.5,30.00,NW,306,0.0,3.0,86,0.00,,,0.00,VWS V14.01,2013-03-29 22:45:00,
2013-03-29 17:49:00,33.8,30.5,29.97,SE,146,4.0,5.0,88,0.01,,,0.01,VWS V14.01,2013-03-29 22:49:00,
2013-03-29 17:54:00,33.4,30.4,29.97,SE,138,1.0,8.0,89,0.01,,,0.01,VWS V14.01,2013-03-29 22:54:00,
2013-03-29 17:59:00,33.3,30.3,29.97,SE,138,3.0,8.0,89,0.01,,,0.01,VWS V14.01,2013-03-29 22:59:00,
2013-03-29 18:00:00,33.2,30.0,29.99,West,263,4.0,4.0,88,0.00,,,0.00,VWS V14.01,2013-03-29 23:00:00,
2013-03-29 18:04:00,33.0,30.0,29.96,SE,140,5.0,11.0,89,0.01,,,0.01,VWS V14.01,2013-03-29 23:04:00,
2013-03-29 18:09:00,32.9,29.9,29.96,SE,131,4.0,11.0,89,0.01,,,0.01,VWS V14.01,2013-03-29 23:09:00,
2013-03-29 18:14:00,32.8,29.8,29.96,SE,131,1.0,11.0,89,0.01,,,0.01,VWS V14.01,2013-03-29 23:14:00,
2013-03-29 18:15:00,33.4,30.1,29.98,South,169,3.0,6.0,88,0.01,,,0.01,VWS V14.01,2013-03-29 23:15:00,
2013-03-29 18:19:00,32.8,29.8,29.96,ESE,121,3.0,5.0,89,0.00,,,0.01,VWS V14.01,2013-03-29 23:19:00,
2013-03-29 18:24:00,32.9,29.9,29.96,ESE,123,2.0,7.0,89,0.00,,,0.01,VWS V14.01,2013-03-29 23:24:00,
2013-03-29 18:29:00,33.0,30.0,29.96,ESE,121,3.0,7.0,89,0.00,,,0.01,VWS V14.01,2013-03-29 23:29:00,
2013-03-29 18:30:00,33.9,30.9,29.97,SSE,155,0.0,5.0,89,0.01,,,0.01,VWS V14.01,2013-03-29 23:30:00,
2013-03-29 18:34:00,33.0,30.0,29.96,ESE,119,1.0,4.0,89,0.00,,,0.01,VWS V14.01,2013-03-29 23:34:00,
2013-03-29 18:39:00,33.1,30.1,29.96,ESE,120,0.0,5.0,89,0.00,,,0.01,VWS V14.01,2013-03-29 23:39:00,
2013-03-29 18:44:00,33.5,30.5,29.96,SE,141,4.0,7.0,89,0.00,,,0.01,VWS V14.01,2013-03-29 23:44:00,
2013-03-29 18:45:00,34.1,31.1,29.97,SSE,155,1.0,5.0,89,0.01,,,0.01,VWS V14.01,2013-03-29 23:45:00,
2013-03-29 18:49:00,33.7,30.7,29.95,SE,134,1.0,6.0,89,0.00,,,0.01,VWS V14.01,2013-03-29 23:49:00,
2013-03-29 18:54:00,33.7,30.7,29.95,SE,133,1.0,6.0,89,0.00,,,0.01,VWS V14.01,2013-03-29 23:54:00,
2013-03-29 18:59:00,33.8,30.5,29.95,SE,130,1.0,6.0,88,0.00,,,0.01,VWS V14.01,2013-03-29 23:59:00,
2013-03-29 19:00:00,33.2,30.0,29.97,SE,134,7.0,8.0,88,0.01,,,0.01,VWS V14.01,2013-03-30 00:00:00,
2013-03-29 19:04:00,33.8,30.5,29.95,SE,134,1.0,6.0,88,0.00,,,0.01,VWS V14.01,2013-03-30 00:04:00,
2013-03-29 19:09:00,33.7,30.5,29.95,SE,125,3.0,7.0,88,0.00,,,0.01,VWS V14.01,2013-03-30 00:09:00,
2013-03-29 19:14:00,33.6,30.4,29.95,SE,128,2.0,7.0,88,0.00,,,0.01,VWS V14.01,2013-03-30 00:14:00,
2013-03-29 19:15:00,32.9,29.9,29.96,SE,131,2.0,11.0,89,0.01,,,0.01,VWS V14.01,2013-03-30 00:15:00,
2013-03-29 19:19:00,33.5,30.2,29.95,SE,129,5.0,6.0,88,0.00,,,0.01,VWS V14.01,2013-03-30 00:19:00,
2013-03-29 19:24:00,33.6,30.6,29.95,SE,126,3.0,8.0,89,0.00,,,0.01,VWS V14.01,2013-03-30 00:24:00,
2013-03-29 19:29:00,33.8,30.8,29.95,SE,127,1.0,8.0,89,0.00,,,0.01,VWS V14.01,2013-03-30 00:29:00,
2013-03-29 19:30:00,33.0,30.0,29.96,ESE,121,3.0,7.0,89,0.00,,,0.01,VWS V14.01,2013-03-30 00:30:00,
2013-03-29 19:34:00,33.7,30.7,29.95,SE,127,2.0,4.0,89,0.00,,,0.01,VWS V14.01,2013-03-30 00:34:00,
2013-03-29 19:39:00,33.5,30.2,29.95,SE,127,0.0,4.0,88,0.00,,,0.01,VWS V14.01,2013-03-30 00:39:00,
2013-03-29 19:44:00,33.3,30.3,29.95,SE,128,1.0,4.0,89,0.00,,,0.01,VWS V14.01,2013-03-30 00:44:00,
2013-03-29 19:45:00,33.5,30.5,29.96,SE,131,2.0,7.0,89,0.00,,,0.01,VWS V14.01,2013-03-30 00:45:00,
2013-03-29 19:49:00,33.0,29.8,29.95,SE,128,0.0,2.0,88,0.00,,,0.01,VWS V14.01,2013-03-30 00:49:00,
2013-03-29 19:54:00,32.9,29.9,29.95,SE,128,2.0,4.0,89,0.00,,,0.01,VWS V14.01,2013-03-30 00:54:00,
2013-03-29 19:59:00,32.7,29.7,29.95,SE,127,0.0,4.0,89,0.00,,,0.01,VWS V14.01,2013-03-30 00:59:00,
2013-03-29 20:00:00,33.8,30.8,29.95,SE,129,3.0,6.0,89,0.00,,,0.01,VWS V14.01,2013-03-30 01:00:00,
2013-03-29 20:04:00,32.5,29.5,29.95,SE,128,0.0,0.0,89,0.00,,,0.01,VWS V14.01,2013-03-30 01:04:00,
2013-03-29 20:09:00,32.3,29.4,29.95,SE,128,0.0,0.0,89,0.00,,,0.01,VWS V14.01,2013-03-30 01:09:00,
2013-03-29 20:14:00,32.1,29.1,29.95,SE,128,0.0,0.0,89,0.00,,,0.01,VWS V14.01,2013-03-30 01:14:00,
2013-03-29 20:15:00,33.6,30.4,29.95,SE,128,0.0,7.0,88,0.00,,,0.01,VWS V14.01,2013-03-30 01:15:00,
2013-03-29 20:19:00,32.0,29.3,29.95,SE,128,0.0,0.0,90,0.00,,,0.01,VWS V14.01,2013-03-30 01:19:00,
2013-03-29 20:24:00,31.8,29.1,29.95,SE,127,0.0,0.0,90,0.00,,,0.01,VWS V14.01,2013-03-30 01:24:00,
2013-03-29 20:29:00,31.7,29.0,29.95,SE,128,0.0,0.0,90,0.00,,,0.01,VWS V14.01,2013-03-30 01:29:00,
2013-03-29 20:30:00,33.7,30.7,29.95,SE,128,1.0,8.0,89,0.00,,,0.01,VWS V14.01,2013-03-30 01:30:00,
2013-03-29 20:34:00,31.6,28.9,29.95,SE,128,0.0,0.0,90,0.00,,,0.01,VWS V14.01,2013-03-30 01:34:00,
2013-03-29 20:39:00,31.4,28.7,29.95,SE,127,0.0,0.0,90,0.00,,,0.01,VWS V14.01,2013-03-30 01:39:00,
2013-03-29 20:44:00,31.3,28.6,29.95,SE,128,0.0,0.0,90,0.00,,,0.01,VWS V14.01,2013-03-30 01:44:00,
2013-03-29 20:45:00,33.2,30.0,29.95,SE,127,1.0,4.0,88,0.00,,,0.01,VWS V14.01,2013-03-30 01:45:00,
2013-03-29 20:49:00,31.2,28.5,29.95,SE,127,0.0,0.0,90,0.00,,,0.01,VWS V14.01,2013-03-30 01:49:00,
2013-03-29 20:54:00,31.1,28.7,29.95,SE,127,2.0,3.0,91,0.00,,,0.01,VWS V14.01,2013-03-30 01:54:00,
2013-03-29 20:59:00,31.0,28.3,29.95,SE,128,0.0,3.0,90,0.00,,,0.01,VWS V14.01,2013-03-30 01:59:00,
2013-03-29 21:00:00,32.6,29.6,29.95,SE,128,0.0,4.0,89,0.00,,,0.01,VWS V14.01,2013-03-30 02:00:00,
2013-03-29 21:04:00,30.9,28.5,29.96,SE,127,2.0,3.0,91,0.00,,,0.01,VWS V14.01,2013-03-30 02:04:00,
2013-03-29 21:09:00,30.8,28.4,29.96,SE,127,0.0,3.0,91,0.00,,,0.01,VWS V14.01,2013-03-30 02:09:00,
2013-03-29 21:14:00,30.6,28.2,29.96,SE,127,0.0,3.0,91,0.00,,,0.01,VWS V14.01,2013-03-30 02:14:00,
2013-03-29 21:15:00,32.1,29.1,29.95,SE,127,0.0,0.0,89,0.00,,,0.01,VWS V14.01,2013-03-30 02:15:00,
2013-03-29 21:19:00,30.4,28.0,29.96,SE,127,0.0,0.0,91,0.00,,,0.01,VWS V14.01,2013-03-30 02:19:00,
2013-03-29 21:24:00,30.1,27.7,29.97,SE,128,0.0,0.0,91,0.00,,,0.01,VWS V14.01,2013-03-30 02:24:00,
2013-03-29 21:29:00,29.7,27.0,29.97,SE,128,0.0,2.0,90,0.00,,,0.01,VWS V14.01,2013-03-30 02:29:00,
2013-03-29 21:30:00,31.6,28.9,29.95,SE,128,0.0,0.0,90,0.00,,,0.01,VWS V14.01,2013-03-30 02:30:00,
2013-03-29 21:34:00,29.3,26.7,29.97,SE,128,0.0,2.0,90,0.00,,,0.01,VWS V14.01,2013-03-30 02:34:00,
2013-03-29 21:39:00,29.0,26.6,29.97,SE,127,0.0,2.0,91,0.00,,,0.01,VWS V14.01,2013-03-30 02:39:00,
2013-03-29 21:44:00,28.7,26.3,29.97,SE,127,0.0,2.0,91,0.00,,,0.01,VWS V14.01,2013-03-30 02:44:00,
2013-03-29 21:45:00,31.2,28.5,29.95,SE,128,0.0,0.0,90,0.00,,,0.01,VWS V14.01,2013-03-30 02:45:00,
2013-03-29 21:49:00,28.5,26.1,29.97,SE,128,0.0,0.0,91,0.00,,,0.01,VWS V14.01,2013-03-30 02:49:00,
2013-03-29 21:54:00,28.4,26.3,29.97,SE,127,0.0,0.0,92,0.00,,,0.01,VWS V14.01,2013-03-30 02:54:00,
2013-03-29 21:59:00,28.3,26.2,29.97,SE,128,0.0,0.0,92,0.00,,,0.01,VWS V14.01,2013-03-30 02:59:00,
2013-03-29 22:00:00,31.0,28.6,29.95,SE,127,3.0,3.0,91,0.00,,,0.01,VWS V14.01,2013-03-30 03:00:00,
2013-03-29 22:04:00,28.2,26.1,29.97,SE,128,0.0,0.0,92,0.00,,,0.01,VWS V14.01,2013-03-30 03:04:00,
2013-03-29 22:09:00,28.1,26.0,29.97,SE,127,0.0,0.0,92,0.00,,,0.01,VWS V14.01,2013-03-30 03:09:00,
2013-03-29 22:14:00,28.1,26.0,29.97,SE,127,0.0,0.0,92,0.00,,,0.01,VWS V14.01,2013-03-30 03:14:00,
2013-03-29 22:15:00,30.6,28.2,29.96,SE,128,0.0,3.0,91,0.00,,,0.01,VWS V14.01,2013-03-30 03:15:00,
2013-03-29 22:19:00,28.3,26.5,29.97,SE,128,0.0,0.0,93,0.00,,,0.01,VWS V14.01,2013-03-30 03:19:00,
2013-03-29 22:24:00,28.5,26.7,29.97,SE,127,0.0,0.0,93,0.00,,,0.01,VWS V14.01,2013-03-30 03:24:00,
2013-03-29 22:29:00,28.5,26.7,29.97,SE,127,0.0,0.0,93,0.00,,,0.01,VWS V14.01,2013-03-30 03:29:00,
2013-03-29 22:30:00,29.6,27.0,29.97,SE,127,0.0,2.0,90,0.00,,,0.01,VWS V14.01,2013-03-30 03:30:00,
2013-03-29 22:34:00,28.4,26.6,29.96,SE,127,0.0,0.0,93,0.00,,,0.01,VWS V14.01,2013-03-30 03:34:00,
2013-03-29 22:39:00,28.3,26.5,29.96,SE,127,0.0,0.0,93,0.00,,,0.01,VWS V14.01,2013-03-30 03:39:00,
2013-03-29 22:44:00,28.1,26.3,29.96,SE,127,0.0,0.0,93,0.00,,,0.01,VWS V14.01,2013-03-30 03:44:00,
2013-03-29 22:45:00,28.7,26.3,29.97,SE,127,0.0,2.0,91,0.00,,,0.01,VWS V14.01,2013-03-30 03:45:00,
2013-03-29 22:49:00,28.2,26.4,29.96,SE,127,0.0,0.0,93,0.00,,,0.01,VWS V14.01,2013-03-30 03:49:00,
2013-03-29 22:54:00,28.1,26.3,29.96,SE,127,0.0,0.0,93,0.00,,,0.01,VWS V14.01,2013-03-30 03:54:00,
2013-03-29 22:59:00,28.1,26.3,29.97,SE,128,0.0,0.0,93,0.00,,,0.01,VWS V14.01,2013-03-30 03:59:00,
2013-03-29 23:00:00,28.1,26.3,29.97,SE,127,0.0,0.0,93,0.00,,,0.01,VWS V14.01,2013-03-30 04:00:00,
2013-03-29 23:05:00,28.0,26.2,29.97,SE,128,0.0,0.0,93,0.00,,,0.01,VWS V14.01,2013-03-30 04:05:00,
2013-03-29 23:10:00,27.9,26.1,29.96,SE,128,0.0,0.0,93,0.00,,,0.01,VWS V14.01,2013-03-30 04:10:00,
2013-03-29 23:15:00,27.7,25.9,29.96,SE,127,0.0,0.0,93,0.00,,,0.01,VWS V14.01,2013-03-30 04:15:00,
2013-03-29 23:20:00,27.5,25.7,29.96,SE,128,0.0,0.0,93,0.00,,,0.01,VWS V14.01,2013-03-30 04:20:00,
2013-03-29 23:25:00,27.3,25.5,29.96,SE,128,0.0,0.0,93,0.00,,,0.01,VWS V14.01,2013-03-30 04:25:00,
2013-03-29 23:30:00,27.2,25.4,29.96,SE,128,0.0,0.0,93,0.00,,,0.01,VWS V14.01,2013-03-30 04:30:00,
2013-03-29 23:35:00,27.6,26.0,29.96,SE,127,0.0,0.0,94,0.00,,,0.01,VWS V14.01,2013-03-30 04:35:00,
2013-03-29 23:40:00,27.9,26.3,29.96,SE,127,0.0,0.0,94,0.00,,,0.01,VWS V14.01,2013-03-30 04:40:00,
2013-03-29 23:45:00,28.0,26.4,29.96,SE,127,1.0,3.0,94,0.00,,,0.01,VWS V14.01,2013-03-30 04:45:00,
2013-03-29 23:50:00,27.5,25.7,29.96,SE,127,2.0,7.0,93,0.00,,,0.01,VWS V14.01,2013-03-30 04:50:00,
2013-03-29 23:55:00,27.1,25.3,29.96,SE,128,2.0,7.0,93,0.00,,,0.01,VWS V14.01,2013-03-30 04:55:00,